Regional Weather Roundup
Issued by NWS Kansas City/Pleasant Hill, MO

Home | Current Version | Previous Version | Text Only | Print | Product List | Glossary On
Versions: 1 2 3 4 5 6 7 8 9 10 11 12 13 14 15 16 17 18 19 20 21 22 23 24 25 26 27 28 29 30 31 32 33 34 35 36 37 38 39 40 41 42 43 44 45 46 47 48 49 50
000
ASUS43 KEAX 280204
RWREAX

WEATHER ROUNDUP FOR EASTERN KANSAS AND NORTHWEST MISSOURI
NATIONAL WEATHER SERVICE KANSAS CITY/PLEASANT HILL MO
800 PM CST FRI FEB 27 2015

KSZ040-057-103>105-MOZ028-029-037-043-280300-
...KANSAS CITY METROPOLITAN AREA...

CITY           SKY/WX    TMP DP  RH WIND       PRES   REMARKS
K.C. INTL      CLOUDY    16   2  54 E6        30.55S WCI   7
K.C. DOWNTOWN  MOCLDY    18   4  54 E8        30.57S WCI   8
LEES SUMMIT    CLOUDY    18   2  49 E7        30.55S WCI   9
OLATHE - IXD   CLOUDY    18   3  52 E7        30.54S WCI   9
OLATHE - OJC   CLOUDY    18   2  49 E6        30.53S WCI  10
LAWRENCE       CLOUDY    17   2  51 NE5       30.56S WCI  10

$$

MOZ001>008-011>017-020>025-030>033-038>040-044>046-053-054-280300-
...NORTHERN AND CENTRAL MISSOURI...

CITY           SKY/WX    TMP DP  RH WIND       PRES   REMARKS
ST. JOSEPH     MOCLDY    18   5  57 S8        30.57S WCI   8
MOSBY          CLOUDY    18   3  53 E7        30.59R WCI   8
WARRENSBURG    CLOUDY    19   5  53 NE7       30.57F WCI  10
WHITEMAN AFB   CLOUDY    18   4  53 NE9       30.56R WCI   7
CLINTON        CLOUDY    23   5  46 N3        30.58R
SEDALIA        CLOUDY    20   4  50 E7        30.58S WCI  11
WARSAW         NOT AVBL
MARSHALL       CLOUDY    19   7  58 NE3       30.60
CHILLICOTHE      N/A     15   4  61 CALM      30.61S
MOBERLY        CLEAR     12   3  67 NE5       30.61R WCI   4
KIRKSVILLE     PTCLDY    12   2  64 E8        30.60R WCI   0

$$

MOZ041-047>049-056>058-063>065-088>090-097-280300-
...EASTERN AND SOUTHERN MISSOURI...

CITY           SKY/WX    TMP DP  RH WIND       PRES   REMARKS
ST. LOUIS INTL MOCLDY    16   0  49 E7        30.66R WCI   6
SPIRIT OF STL  CLOUDY    16   0  49 NE8       30.64S WCI   5
COLUMBIA       CLOUDY    15   3  59 NE7       30.59R WCI   5
JEFFERSON CITY CLOUDY    18   2  49 NE12      30.61S WCI   5
MEXICO         FAIR      14   7  73 CALM      30.61R
HANNIBAL       PTCLDY     7  -4  61 CALM      30.64R
ROLLA          CLOUDY    20   1  43 E9        30.53S WCI   9
LEBANON        CLOUDY    19   1  45 E3        30.52R
OSAGE BEACH    CLOUDY    19   1  45 E3        30.56S
SPRINGFIELD    CLOUDY    20  10  65 S9        30.50R WCI   9
BRANSON        LGT SNOW  18  14  86 CALM      30.51S
NEVADA         CLOUDY    19   5  53 NE5       30.56S WCI  13
JOPLIN         LGT SNOW  19  13  77 SE3       30.53S
WEST PLAINS    CLOUDY    21   3  45 E6        30.51F WCI  13

$$

IAZ060-094-KSZ022-034>040-054-083-096-NEZ052-066-093-280300-
...KANSAS...SOUTHEAST NEBRASKA AND IOWA...

CITY           SKY/WX    TMP DP  RH WIND       PRES   REMARKS
TOPEKA         CLOUDY    17   2  51 E7        30.55S WCI   8
MANHATTAN      CLOUDY    16   5  62 E6        30.51S WCI   7
EMPORIA        FLURRIES  15   9  76 SE6       30.51S WCI   6
CHANUTE        FLURRIES  18  11  74 NE6       30.53S WCI  10
WICHITA        CLOUDY    16  10  77 E8        30.47S WCI   5
OMAHA          CLEAR     14   4  64 E5        30.54R WCI   6
LINCOLN        CLEAR     14   1  56 S7        30.50R WCI   4
FALLS CITY     PTCLDY    12  -1  56 SE7       30.54S WCI   1
LAMONI         PTCLDY     9   0  67 E6        30.56R WCI  -1
DES MOINES     PTCLDY    10  -1  61 E5        30.59R WCI   2

$$



USA.gov is the U.S. government's official web portal to all federal, state and local government web resources and services.